TimeCDT,TemperatureF,Dew PointF,Humidity,Sea Level PressureIn,VisibilityMPH,Wind Direction,Wind SpeedMPH,Gust SpeedMPH,PrecipitationIn,Events,Conditions,WindDirDegrees,DateUTC
12:53 AM,57.0,51.1,81,29.52,10.0,South,18.4,26.5,N/A,,Clear,170,2013-10-11 05:53:00
1:53 AM,55.0,50.0,83,29.48,10.0,South,17.3,26.5,N/A,,Clear,170,2013-10-11 06:53:00
2:53 AM,55.0,48.9,80,29.45,10.0,South,23.0,33.4,N/A,,Clear,170,2013-10-11 07:53:00
3:53 AM,54.0,46.9,77,29.47,10.0,South,19.6,27.6,N/A,,Clear,190,2013-10-11 08:53:00
4:53 AM,53.1,43.0,69,29.45,10.0,SSW,17.3,27.6,N/A,,Overcast,200,2013-10-11 09:53:00
5:53 AM,52.0,44.1,74,29.42,10.0,South,17.3,26.5,N/A,,Overcast,170,2013-10-11 10:53:00
6:53 AM,51.1,43.0,74,29.44,10.0,South,12.7,21.9,N/A,,Overcast,190,2013-10-11 11:53:00
7:53 AM,51.1,41.0,68,29.50,10.0,SW,16.1,25.3,N/A,,Overcast,220,2013-10-11 12:53:00
8:53 AM,51.1,42.1,71,29.49,10.0,SSW,16.1,26.5,N/A,,Partly Cloudy,210,2013-10-11 13:53:00
9:53 AM,54.0,44.1,69,29.52,10.0,WSW,25.3,39.1,N/A,,Overcast,250,2013-10-11 14:53:00
10:53 AM,55.0,44.1,67,29.58,10.0,WSW,20.7,33.4,0.00,,Overcast,250,2013-10-11 15:53:00
11:53 AM,55.9,42.1,60,29.62,10.0,West,29.9,38.0,0.00,Rain,Light Rain,270,2013-10-11 16:53:00
12:53 PM,55.9,41.0,57,29.66,10.0,West,27.6,35.7,0.00,,Mostly Cloudy,270,2013-10-11 17:53:00
1:53 PM,55.9,42.1,60,29.69,10.0,WNW,32.2,41.4,N/A,,Overcast,300,2013-10-11 18:53:00
2:53 PM,55.9,42.1,60,29.72,10.0,NW,25.3,34.5,N/A,,Mostly Cloudy,310,2013-10-11 19:53:00
3:53 PM,57.9,41.0,53,29.76,10.0,NW,21.9,34.5,N/A,,Mostly Cloudy,320,2013-10-11 20:53:00
4:53 PM,57.9,39.9,51,29.80,10.0,NW,21.9,27.6,N/A,,Clear,320,2013-10-11 21:53:00
5:53 PM,55.9,39.0,53,29.84,10.0,NW,18.4,27.6,N/A,,Clear,310,2013-10-11 22:53:00
6:53 PM,51.1,39.9,66,29.87,10.0,WNW,6.9,-,N/A,,Clear,300,2013-10-11 23:53:00
7:53 PM,50.0,39.0,66,29.90,10.0,NW,8.1,-,N/A,,Clear,310,2013-10-12 00:53:00
8:53 PM,50.0,36.0,59,29.94,10.0,NW,10.4,-,N/A,,Clear,310,2013-10-12 01:53:00
9:53 PM,45.0,36.0,71,29.97,10.0,WNW,3.5,-,N/A,,Clear,300,2013-10-12 02:53:00
10:53 PM,41.0,36.0,82,30.00,10.0,Calm,Calm,-,N/A,,Clear,0,2013-10-12 03:53:00
11:53 PM,43.0,36.0,76,30.01,10.0,WNW,5.8,-,N/A,,Clear,290,2013-10-12 04:53:00